Regional Weather Roundup
Issued by NWS Memphis, TN

Home | Current Version | Previous Version | Text Only | Print | Product List | Glossary On
Versions: 1 2 3 4 5 6 7 8 9 10 11 12 13 14 15 16 17 18 19 20 21 22 23 24 25 26 27 28 29 30 31 32 33 34 35 36 37 38 39 40 41 42 43 44 45 46 47 48 49 50
000
ASUS44 KMEG 131910
RWRMEG
MEMPHIS CWA HOURLY WEATHER ROUNDUP
NATIONAL WEATHER SERVICE MEMPHIS TN
100 PM CST SAT FEB 13 2016

...WEST TENNESSEE...

CITY           SKY/WX    TMP DP  RH WIND       PRES   REMARKS
MEMPHIS INTL   MOSUNNY   37   6  27 NE12      30.52F WCI  29
NWS MEMPHIS      N/A     36 N/A N/A MISG        N/A
JACKSON        SUNNY     32   7  35 NE10      30.54F WCI  24
LEXINGTON      SUNNY     30   0  27 NE6       30.50F WCI  24
DYERSBURG      SUNNY     28   5  37 NE10      30.58F WCI  19
UNION CITY     SUNNY     25   5  42 NE7       30.56S WCI  17
PARIS          SUNNY     25   3  39 NE12      30.54F WCI  14


...EASTERN ARKANSAS...

CITY           SKY/WX    TMP DP  RH WIND       PRES   REMARKS
JONESBORO      SUNNY     29   9  43 NE13G21   30.58F WCI  19
WEST MEMPHIS   SUNNY     35  12  38 NE7       30.53F WCI  29
BATESVILLE     SUNNY     37   3  23 E7        30.55F WCI  32
NEWPORT        SUNNY     33   3  28 NE7       30.58F WCI  27
WALNUT RIDGE   SUNNY     30   5  34 SE9       30.58F WCI  22
BLYTHEVILLE    SUNNY     34  10  37 NE13G20   30.58F WCI  25
SEARCY         SUNNY     37   5  25 NE12      30.57F WCI  30
STUTTGART      SUNNY     37  10  32 NE12      30.54F WCI  30
PINE BLUFF     SUNNY     40  10  29 N7        30.53F
MONTICELLO     SUNNY     45   9  23 NE12G20   30.50F


...NORTH MISSISSIPPI...

CITY           SKY/WX    TMP DP  RH WIND       PRES   REMARKS
TUPELO         SUNNY     39   8  27 N13       30.49F WCI  31
OXFORD         SUNNY     39   3  22 NE8G16    30.50F WCI  34
OLIVE BRANCH   SUNNY     34  10  37 N8        30.52F WCI  27
TUNICA         SUNNY     36  12  38 N8        30.54F WCI  29
CORINTH        SUNNY     36   9  32 N7G14     30.50F WCI  30
GREENWOOD      SUNNY     47  10  22 N9        30.48F
COLUMBUS       SUNNY     42  11  27 VRB5      30.46F
STARKVILLE     FAIR      43  16  33 NE6       30.47F
GOLDEN TRIANGL SUNNY     45  14  29 NE7       30.47F


...SOUTHEAST MISSOURI...

CITY           SKY/WX    TMP DP  RH WIND       PRES   REMARKS
WEST PLAINS    SUNNY     31  -7  19 VRB6      30.49F WCI  25
POPLAR BLUFF   MOSUNNY   27   4  37 NE8       30.59F WCI  19
CAPE GIRARDEAU MOSUNNY   24   3  40 NE7       30.59F WCI  16


...NORTHWEST ALABAMA...

CITY           SKY/WX    TMP DP  RH WIND       PRES   REMARKS
MUSCLE SHOALS  SUNNY     36   5  27 N8        30.49F WCI  30


...MIDDLE TENNESSEE...

CITY           SKY/WX    TMP DP  RH WIND       PRES   REMARKS
NASHVILLE      MOSUNNY   30   1  29 N5        30.52F WCI  25
CLARKSVILLE    SUNNY     27   3  35 N8        30.55F WCI  19
COLUMBIA       SUNNY     30   5  34 N6        30.48F WCI  24


...WESTERN KENTUCKY...

CITY           SKY/WX    TMP DP  RH WIND       PRES   REMARKS
PADUCAH        SUNNY     28   1  31 NE9       30.57F WCI  19
FORT CAMPBELL  SUNNY     25   2  36 NE3       30.54F


...CENTRAL ARKANSAS...

CITY           SKY/WX    TMP DP  RH WIND       PRES   REMARKS
LITTLE ROCK    MOSUNNY   40  13  33 E9G21     30.52F WCI  34


SKY/WX REPORTED AS FAIR MEANS FEW OR NO CLOUDS BELOW
12 THOUSAND FEET.




USA.gov is the U.S. government's official web portal to all federal, state and local government web resources and services.